Location: Brachbach
(49.1847°N, 9.7240°E)
Time: 06:43:50
(UTC+00:00)

FO-29 - Pass Details

Date: 15 March 2026
Orbit: 801 x 1320 km, 98.5° (Epoch: 17 April)

Event Time Altitude Azimuth Distance (km) Brightness Sun altitude
Rises 04:46:03 0° 103° (ESE) 3,538 14.0 -8.8°
Reaches altitude 10° 04:49:19 10° 83° (E) 2,686 13.6 -8.3°
Maximum altitude 04:52:48 16° 47° (NE) 2,362 12.3 -7.7°
Drops below altitude 10° 04:56:32 10° 12° (NNE) 2,899 12.2 -7.1°
Sets 05:00:15 0° 353° (N) 3,965 12.7 -6.5°
